Location: *
(35.8942°N, 23.3025°E)
Time: 16:02:59
(UTC+00:00)

N. Korean satellite - Visible Passes

Search period start: 01 December 2021 00:00
Search period end: 11 December 2021 00:00
Orbit: 447 x 495 km, 97.3° (Epoch: 01 December)

Date Brightness Start Highest point End Pass type
(mag) Time Alt. Az. Time Alt. Az. Time Alt. Az.
01 Dec 8.2 03:12:30 10° NNE 03:15:35 32° E 03:18:37 10° SSE visible
01 Dec 8.4 04:47:35 10° NW 04:48:25 11° WNW 04:49:15 10° W visible
02 Dec 9.7 02:45:18 10° ENE 02:46:57 13° E 02:48:37 10° ESE visible
02 Dec 7.4 04:17:20 10° NNW 04:20:09 25° WNW 04:22:58 10° SW visible
03 Dec 6.2 03:48:24 10° N 03:51:46 67° WNW 03:55:06 10° SSW visible
03 Dec 9.8 15:53:54 10° SW 15:56:03 15° W 15:58:11 10° WNW visible
04 Dec 7.6 03:20:01 10° NNE 03:23:15 42° E 03:26:28 10° S visible
05 Dec 9.4 02:52:23 10° NE 02:54:38 17° E 02:56:52 10° SE visible
05 Dec 7.7 04:25:12 10° NNW 04:27:43 20° WNW 04:30:14 10° WSW visible
06 Dec 6.5 03:56:02 10° N 03:59:20 50° WNW 04:02:36 10° SSW visible
06 Dec 10.0 16:02:19 10° WSW 16:03:41 12° W 16:05:03 10° WNW visible
07 Dec 7.0 03:27:29 10° NNE 03:30:49 56° E 03:34:08 10° S visible
08 Dec 9.0 02:59:32 10° NE 03:02:11 21° E 03:04:50 10° SSE visible
08 Dec 8.0 04:33:03 10° NNW 04:35:11 16° WNW 04:37:19 10° WSW visible
09 Dec 6.8 04:03:37 10° N 04:06:47 38° WNW 04:09:57 10° SW visible
10 Dec 6.5 03:35:19 13° NNE 03:38:15 75° E 03:41:39 10° S visible
10 Dec 9.4 15:39:41 10° SSW 15:42:29 22° W 15:45:14 10° NW visible
